phosend.com - /docs/Video/FFmpeg-master/tests/ref/vsynth/


[To Parent Directory]

Wednesday, March 18, 2026 4:34 PM 249 vsynth1-amv
Wednesday, March 18, 2026 4:34 PM 252 vsynth1-asv1
Wednesday, March 18, 2026 4:34 PM 252 vsynth1-asv2
Wednesday, March 18, 2026 4:34 PM 253 vsynth1-avui
Wednesday, March 18, 2026 4:34 PM 251 vsynth1-bpp1
Wednesday, March 18, 2026 4:34 PM 256 vsynth1-bpp15
Wednesday, March 18, 2026 4:34 PM 260 vsynth1-cinepak
Wednesday, March 18, 2026 4:34 PM 252 vsynth1-cljr
Wednesday, March 18, 2026 4:34 PM 273 vsynth1-dnxhd-1080i
Wednesday, March 18, 2026 4:34 PM 291 vsynth1-dnxhd-1080i-10bit
Wednesday, March 18, 2026 4:34 PM 288 vsynth1-dnxhd-1080i-colr
Wednesday, March 18, 2026 4:34 PM 286 vsynth1-dnxhd-2k-hr-hq
Wednesday, March 18, 2026 4:34 PM 286 vsynth1-dnxhd-4k-hr-lb
Wednesday, March 18, 2026 4:34 PM 274 vsynth1-dnxhd-720p
Wednesday, March 18, 2026 4:34 PM 292 vsynth1-dnxhd-720p-10bit
Wednesday, March 18, 2026 4:34 PM 291 vsynth1-dnxhd-720p-hr-lb
Wednesday, March 18, 2026 4:34 PM 283 vsynth1-dnxhd-720p-rd
Wednesday, March 18, 2026 4:34 PM 284 vsynth1-dnxhd-edge1-hr
Wednesday, March 18, 2026 4:34 PM 284 vsynth1-dnxhd-edge2-hr
Wednesday, March 18, 2026 4:34 PM 284 vsynth1-dnxhd-edge3-hr
Wednesday, March 18, 2026 4:34 PM 285 vsynth1-dnxhd-hr-hq-mov
Wednesday, March 18, 2026 4:34 PM 285 vsynth1-dnxhd-hr-lb-mov
Wednesday, March 18, 2026 4:34 PM 285 vsynth1-dnxhd-hr-sq-mov
Wednesday, March 18, 2026 4:34 PM 290 vsynth1-dnxhd-uhd-hr-sq
Wednesday, March 18, 2026 4:34 PM 244 vsynth1-dv
Wednesday, March 18, 2026 4:34 PM 256 vsynth1-dv-411
Wednesday, March 18, 2026 4:34 PM 254 vsynth1-dv-50
Wednesday, March 18, 2026 4:34 PM 257 vsynth1-dv-fhd
Wednesday, March 18, 2026 4:34 PM 254 vsynth1-dv-hd
Wednesday, March 18, 2026 4:34 PM 252 vsynth1-ffv1
Wednesday, March 18, 2026 4:34 PM 270 vsynth1-ffv1-2pass
Wednesday, March 18, 2026 4:34 PM 276 vsynth1-ffv1-2pass10
Wednesday, March 18, 2026 4:34 PM 261 vsynth1-ffv1-v0
Wednesday, March 18, 2026 4:34 PM 261 vsynth1-ffv1-v2
Wednesday, March 18, 2026 4:34 PM 276 vsynth1-ffv1-v3-bgr0
Wednesday, March 18, 2026 4:34 PM 280 vsynth1-ffv1-v3-rgb48
Wednesday, March 18, 2026 4:34 PM 285 vsynth1-ffv1-v3-yuv420p
Wednesday, March 18, 2026 4:34 PM 291 vsynth1-ffv1-v3-yuv422p10
Wednesday, March 18, 2026 4:34 PM 291 vsynth1-ffv1-v3-yuv444p16
Wednesday, March 18, 2026 4:34 PM 261 vsynth1-ffvhuff
Wednesday, March 18, 2026 4:34 PM 280 vsynth1-ffvhuff420p12
Wednesday, March 18, 2026 4:34 PM 292 vsynth1-ffvhuff422p10left
Wednesday, March 18, 2026 4:34 PM 271 vsynth1-ffvhuff444
Wednesday, March 18, 2026 4:34 PM 280 vsynth1-ffvhuff444p16
Wednesday, March 18, 2026 4:34 PM 262 vsynth1-flashsv
Wednesday, March 18, 2026 4:34 PM 264 vsynth1-flashsv2
Wednesday, March 18, 2026 4:34 PM 248 vsynth1-flv
Wednesday, March 18, 2026 4:34 PM 251 vsynth1-h261
Wednesday, March 18, 2026 4:34 PM 275 vsynth1-h261-trellis
Wednesday, March 18, 2026 4:34 PM 251 vsynth1-h263
Wednesday, March 18, 2026 4:34 PM 266 vsynth1-h263-obmc
Wednesday, March 18, 2026 4:34 PM 255 vsynth1-h263p
Wednesday, March 18, 2026 4:34 PM 261 vsynth1-huffyuv
Wednesday, March 18, 2026 4:34 PM 277 vsynth1-huffyuvbgr24
Wednesday, March 18, 2026 4:34 PM 274 vsynth1-huffyuvbgra
Wednesday, March 18, 2026 4:34 PM 264 vsynth1-jpeg2000
Wednesday, March 18, 2026 4:34 PM 273 vsynth1-jpeg2000-97
Wednesday, March 18, 2026 4:34 PM 285 vsynth1-jpeg2000-gbrp12
Wednesday, March 18, 2026 4:34 PM 298 vsynth1-jpeg2000-yuva444p16
Wednesday, March 18, 2026 4:34 PM 258 vsynth1-jpegls
Wednesday, March 18, 2026 4:34 PM 255 vsynth1-ljpeg
Wednesday, March 18, 2026 4:34 PM 264 vsynth1-magicyuv
Wednesday, March 18, 2026 4:34 PM 255 vsynth1-mjpeg
Wednesday, March 18, 2026 4:34 PM 267 vsynth1-mjpeg-422
Wednesday, March 18, 2026 4:34 PM 267 vsynth1-mjpeg-444
Wednesday, March 18, 2026 4:34 PM 279 vsynth1-mjpeg-huffman
Wednesday, March 18, 2026 4:34 PM 273 vsynth1-mjpeg-trell
Wednesday, March 18, 2026 4:34 PM 297 vsynth1-mjpeg-trell-huffman
Wednesday, March 18, 2026 4:34 PM 268 vsynth1-mov-bgr24
Wednesday, March 18, 2026 4:34 PM 268 vsynth1-mov-bpp15
Wednesday, March 18, 2026 4:34 PM 268 vsynth1-mov-bpp16
Wednesday, March 18, 2026 4:34 PM 268 vsynth1-mpeg1
Wednesday, March 18, 2026 4:34 PM 272 vsynth1-mpeg1b
Wednesday, March 18, 2026 4:34 PM 268 vsynth1-mpeg2
Wednesday, March 18, 2026 4:34 PM 280 vsynth1-mpeg2-422
Wednesday, March 18, 2026 4:34 PM 295 vsynth1-mpeg2-idct-int
Wednesday, March 18, 2026 4:34 PM 286 vsynth1-mpeg2-ilace
Wednesday, March 18, 2026 4:34 PM 298 vsynth1-mpeg2-ivlc-qprd
Wednesday, March 18, 2026 4:34 PM 289 vsynth1-mpeg2-thread
Wednesday, March 18, 2026 4:34 PM 304 vsynth1-mpeg2-thread-ivlc
Wednesday, March 18, 2026 4:34 PM 254 vsynth1-mpeg4
Wednesday, March 18, 2026 4:34 PM 269 vsynth1-mpeg4-adap
Wednesday, March 18, 2026 4:34 PM 266 vsynth1-mpeg4-adv
Wednesday, March 18, 2026 4:34 PM 272 vsynth1-mpeg4-error
Wednesday, March 18, 2026 4:34 PM 263 vsynth1-mpeg4-nr
Wednesday, March 18, 2026 4:34 PM 269 vsynth1-mpeg4-nsse
Wednesday, March 18, 2026 4:34 PM 269 vsynth1-mpeg4-qpel
Wednesday, March 18, 2026 4:34 PM 269 vsynth1-mpeg4-qprd
Wednesday, March 18, 2026 4:34 PM 263 vsynth1-mpeg4-rc
Wednesday, March 18, 2026 4:34 PM 275 vsynth1-mpeg4-thread
Wednesday, March 18, 2026 4:34 PM 252 vsynth1-mpng
Wednesday, March 18, 2026 4:34 PM 260 vsynth1-msmpeg4
Wednesday, March 18, 2026 4:34 PM 266 vsynth1-msmpeg4v2
Wednesday, March 18, 2026 4:34 PM 255 vsynth1-msrle
Wednesday, March 18, 2026 4:34 PM 264 vsynth1-msvideo1
Wednesday, March 18, 2026 4:34 PM 258 vsynth1-prores
Wednesday, March 18, 2026 4:34 PM 270 vsynth1-prores_444
Wednesday, March 18, 2026 4:34 PM 282 vsynth1-prores_444_int
Wednesday, March 18, 2026 4:34 PM 270 vsynth1-prores_int
Wednesday, March 18, 2026 4:34 PM 267 vsynth1-prores_ks
Wednesday, March 18, 2026 4:34 PM 256 vsynth1-qtrle
Wednesday, March 18, 2026 4:34 PM 267 vsynth1-qtrlegray
Wednesday, March 18, 2026 4:34 PM 253 vsynth1-r210
Wednesday, March 18, 2026 4:34 PM 250 vsynth1-rgb
Wednesday, March 18, 2026 4:34 PM 263 vsynth1-roqvideo
Wednesday, March 18, 2026 4:34 PM 253 vsynth1-rpza
Wednesday, March 18, 2026 4:34 PM 249 vsynth1-rv10
Wednesday, March 18, 2026 4:34 PM 249 vsynth1-rv20
Wednesday, March 18, 2026 4:34 PM 249 vsynth1-smc
Wednesday, March 18, 2026 4:34 PM 251 vsynth1-snow
Wednesday, March 18, 2026 4:34 PM 266 vsynth1-snow-hpel
Wednesday, March 18, 2026 4:34 PM 261 vsynth1-snow-ll
Wednesday, March 18, 2026 4:34 PM 275 vsynth1-speedhq-420p
Wednesday, March 18, 2026 4:34 PM 276 vsynth1-speedhq-422p
Wednesday, March 18, 2026 4:34 PM 276 vsynth1-speedhq-444p
Wednesday, March 18, 2026 4:34 PM 252 vsynth1-svq1
Wednesday, March 18, 2026 4:34 PM 253 vsynth1-v210
Wednesday, March 18, 2026 4:34 PM 262 vsynth1-v210-10
Wednesday, March 18, 2026 4:34 PM 253 vsynth1-v308
Wednesday, March 18, 2026 4:34 PM 253 vsynth1-v408
Wednesday, March 18, 2026 4:34 PM 253 vsynth1-v410
Wednesday, March 18, 2026 4:34 PM 264 vsynth1-vc2-420p
Wednesday, March 18, 2026 4:34 PM 270 vsynth1-vc2-420p10
Wednesday, March 18, 2026 4:34 PM 270 vsynth1-vc2-420p12
Wednesday, March 18, 2026 4:34 PM 264 vsynth1-vc2-422p
Wednesday, March 18, 2026 4:34 PM 270 vsynth1-vc2-422p10
Wednesday, March 18, 2026 4:34 PM 270 vsynth1-vc2-422p12
Wednesday, March 18, 2026 4:34 PM 264 vsynth1-vc2-444p
Wednesday, March 18, 2026 4:34 PM 270 vsynth1-vc2-444p10
Wednesday, March 18, 2026 4:34 PM 270 vsynth1-vc2-444p12
Wednesday, March 18, 2026 4:34 PM 264 vsynth1-vc2-t5_3
Wednesday, March 18, 2026 4:34 PM 267 vsynth1-vc2-thaar
Wednesday, March 18, 2026 4:34 PM 251 vsynth1-wmv1
Wednesday, March 18, 2026 4:34 PM 251 vsynth1-wmv2
Wednesday, March 18, 2026 4:34 PM 253 vsynth1-xface
Wednesday, March 18, 2026 4:34 PM 252 vsynth1-y41p
Wednesday, March 18, 2026 4:34 PM 249 vsynth1-yuv
Wednesday, March 18, 2026 4:34 PM 252 vsynth1-yuv4
Wednesday, March 18, 2026 4:34 PM 253 vsynth1-zlib
Wednesday, March 18, 2026 4:34 PM 248 vsynth2-amv
Wednesday, March 18, 2026 4:34 PM 251 vsynth2-asv1
Wednesday, March 18, 2026 4:34 PM 251 vsynth2-asv2
Wednesday, March 18, 2026 4:34 PM 253 vsynth2-avui
Wednesday, March 18, 2026 4:34 PM 251 vsynth2-bpp1
Wednesday, March 18, 2026 4:34 PM 256 vsynth2-bpp15
Wednesday, March 18, 2026 4:34 PM 260 vsynth2-cinepak
Wednesday, March 18, 2026 4:34 PM 252 vsynth2-cljr
Wednesday, March 18, 2026 4:34 PM 273 vsynth2-dnxhd-1080i
Wednesday, March 18, 2026 4:34 PM 291 vsynth2-dnxhd-1080i-10bit
Wednesday, March 18, 2026 4:34 PM 288 vsynth2-dnxhd-1080i-colr
Wednesday, March 18, 2026 4:34 PM 286 vsynth2-dnxhd-2k-hr-hq
Wednesday, March 18, 2026 4:34 PM 286 vsynth2-dnxhd-4k-hr-lb
Wednesday, March 18, 2026 4:34 PM 274 vsynth2-dnxhd-720p
Wednesday, March 18, 2026 4:34 PM 292 vsynth2-dnxhd-720p-10bit
Wednesday, March 18, 2026 4:34 PM 291 vsynth2-dnxhd-720p-hr-lb
Wednesday, March 18, 2026 4:34 PM 283 vsynth2-dnxhd-720p-rd
Wednesday, March 18, 2026 4:34 PM 284 vsynth2-dnxhd-edge1-hr
Wednesday, March 18, 2026 4:34 PM 284 vsynth2-dnxhd-edge2-hr
Wednesday, March 18, 2026 4:34 PM 284 vsynth2-dnxhd-edge3-hr
Wednesday, March 18, 2026 4:34 PM 285 vsynth2-dnxhd-hr-hq-mov
Wednesday, March 18, 2026 4:34 PM 285 vsynth2-dnxhd-hr-lb-mov
Wednesday, March 18, 2026 4:34 PM 285 vsynth2-dnxhd-hr-sq-mov
Wednesday, March 18, 2026 4:34 PM 290 vsynth2-dnxhd-uhd-hr-sq
Wednesday, March 18, 2026 4:34 PM 244 vsynth2-dv
Wednesday, March 18, 2026 4:34 PM 256 vsynth2-dv-411
Wednesday, March 18, 2026 4:34 PM 254 vsynth2-dv-50
Wednesday, March 18, 2026 4:34 PM 257 vsynth2-dv-fhd
Wednesday, March 18, 2026 4:34 PM 254 vsynth2-dv-hd
Wednesday, March 18, 2026 4:34 PM 252 vsynth2-ffv1
Wednesday, March 18, 2026 4:34 PM 270 vsynth2-ffv1-2pass
Wednesday, March 18, 2026 4:34 PM 276 vsynth2-ffv1-2pass10
Wednesday, March 18, 2026 4:34 PM 261 vsynth2-ffv1-v0
Wednesday, March 18, 2026 4:34 PM 261 vsynth2-ffv1-v2
Wednesday, March 18, 2026 4:34 PM 276 vsynth2-ffv1-v3-bgr0
Wednesday, March 18, 2026 4:34 PM 280 vsynth2-ffv1-v3-rgb48
Wednesday, March 18, 2026 4:34 PM 285 vsynth2-ffv1-v3-yuv420p
Wednesday, March 18, 2026 4:34 PM 291 vsynth2-ffv1-v3-yuv422p10
Wednesday, March 18, 2026 4:34 PM 291 vsynth2-ffv1-v3-yuv444p16
Wednesday, March 18, 2026 4:34 PM 261 vsynth2-ffvhuff
Wednesday, March 18, 2026 4:34 PM 279 vsynth2-ffvhuff420p12
Wednesday, March 18, 2026 4:34 PM 291 vsynth2-ffvhuff422p10left
Wednesday, March 18, 2026 4:34 PM 270 vsynth2-ffvhuff444
Wednesday, March 18, 2026 4:34 PM 280 vsynth2-ffvhuff444p16
Wednesday, March 18, 2026 4:34 PM 262 vsynth2-flashsv
Wednesday, March 18, 2026 4:34 PM 264 vsynth2-flashsv2
Wednesday, March 18, 2026 4:34 PM 248 vsynth2-flv
Wednesday, March 18, 2026 4:34 PM 251 vsynth2-h261
Wednesday, March 18, 2026 4:34 PM 275 vsynth2-h261-trellis
Wednesday, March 18, 2026 4:34 PM 251 vsynth2-h263
Wednesday, March 18, 2026 4:34 PM 266 vsynth2-h263-obmc
Wednesday, March 18, 2026 4:34 PM 255 vsynth2-h263p
Wednesday, March 18, 2026 4:34 PM 261 vsynth2-huffyuv
Wednesday, March 18, 2026 4:34 PM 276 vsynth2-huffyuvbgr24
Wednesday, March 18, 2026 4:34 PM 274 vsynth2-huffyuvbgra
Wednesday, March 18, 2026 4:34 PM 264 vsynth2-jpeg2000
Wednesday, March 18, 2026 4:34 PM 273 vsynth2-jpeg2000-97
Wednesday, March 18, 2026 4:34 PM 285 vsynth2-jpeg2000-gbrp12
Wednesday, March 18, 2026 4:34 PM 298 vsynth2-jpeg2000-yuva444p16
Wednesday, March 18, 2026 4:34 PM 258 vsynth2-jpegls
Wednesday, March 18, 2026 4:34 PM 255 vsynth2-ljpeg
Wednesday, March 18, 2026 4:34 PM 264 vsynth2-magicyuv
Wednesday, March 18, 2026 4:34 PM 254 vsynth2-mjpeg
Wednesday, March 18, 2026 4:34 PM 266 vsynth2-mjpeg-422
Wednesday, March 18, 2026 4:34 PM 267 vsynth2-mjpeg-444
Wednesday, March 18, 2026 4:34 PM 278 vsynth2-mjpeg-huffman
Wednesday, March 18, 2026 4:34 PM 272 vsynth2-mjpeg-trell
Wednesday, March 18, 2026 4:34 PM 296 vsynth2-mjpeg-trell-huffman
Wednesday, March 18, 2026 4:34 PM 268 vsynth2-mov-bgr24
Wednesday, March 18, 2026 4:34 PM 268 vsynth2-mov-bpp15
Wednesday, March 18, 2026 4:34 PM 268 vsynth2-mov-bpp16
Wednesday, March 18, 2026 4:34 PM 268 vsynth2-mpeg1
Wednesday, March 18, 2026 4:34 PM 271 vsynth2-mpeg1b
Wednesday, March 18, 2026 4:34 PM 268 vsynth2-mpeg2
Wednesday, March 18, 2026 4:34 PM 280 vsynth2-mpeg2-422
Wednesday, March 18, 2026 4:34 PM 295 vsynth2-mpeg2-idct-int
Wednesday, March 18, 2026 4:34 PM 286 vsynth2-mpeg2-ilace
Wednesday, March 18, 2026 4:34 PM 298 vsynth2-mpeg2-ivlc-qprd
Wednesday, March 18, 2026 4:34 PM 289 vsynth2-mpeg2-thread
Wednesday, March 18, 2026 4:34 PM 304 vsynth2-mpeg2-thread-ivlc
Wednesday, March 18, 2026 4:34 PM 254 vsynth2-mpeg4
Wednesday, March 18, 2026 4:34 PM 269 vsynth2-mpeg4-adap
Wednesday, March 18, 2026 4:34 PM 266 vsynth2-mpeg4-adv
Wednesday, March 18, 2026 4:34 PM 272 vsynth2-mpeg4-error
Wednesday, March 18, 2026 4:34 PM 263 vsynth2-mpeg4-nr
Wednesday, March 18, 2026 4:34 PM 269 vsynth2-mpeg4-nsse
Wednesday, March 18, 2026 4:34 PM 269 vsynth2-mpeg4-qpel
Wednesday, March 18, 2026 4:34 PM 269 vsynth2-mpeg4-qprd
Wednesday, March 18, 2026 4:34 PM 263 vsynth2-mpeg4-rc
Wednesday, March 18, 2026 4:34 PM 275 vsynth2-mpeg4-thread
Wednesday, March 18, 2026 4:34 PM 252 vsynth2-mpng
Wednesday, March 18, 2026 4:34 PM 260 vsynth2-msmpeg4
Wednesday, March 18, 2026 4:34 PM 266 vsynth2-msmpeg4v2
Wednesday, March 18, 2026 4:34 PM 255 vsynth2-msrle
Wednesday, March 18, 2026 4:34 PM 264 vsynth2-msvideo1
Wednesday, March 18, 2026 4:34 PM 258 vsynth2-prores
Wednesday, March 18, 2026 4:34 PM 270 vsynth2-prores_444
Wednesday, March 18, 2026 4:34 PM 282 vsynth2-prores_444_int
Wednesday, March 18, 2026 4:34 PM 270 vsynth2-prores_int
Wednesday, March 18, 2026 4:34 PM 267 vsynth2-prores_ks
Wednesday, March 18, 2026 4:34 PM 256 vsynth2-qtrle
Wednesday, March 18, 2026 4:34 PM 267 vsynth2-qtrlegray
Wednesday, March 18, 2026 4:34 PM 253 vsynth2-r210
Wednesday, March 18, 2026 4:34 PM 250 vsynth2-rgb
Wednesday, March 18, 2026 4:34 PM 262 vsynth2-roqvideo
Wednesday, March 18, 2026 4:34 PM 252 vsynth2-rpza
Wednesday, March 18, 2026 4:34 PM 249 vsynth2-rv10
Wednesday, March 18, 2026 4:34 PM 249 vsynth2-rv20
Wednesday, March 18, 2026 4:34 PM 249 vsynth2-smc
Wednesday, March 18, 2026 4:34 PM 250 vsynth2-snow
Wednesday, March 18, 2026 4:34 PM 265 vsynth2-snow-hpel
Wednesday, March 18, 2026 4:34 PM 261 vsynth2-snow-ll
Wednesday, March 18, 2026 4:34 PM 275 vsynth2-speedhq-420p
Wednesday, March 18, 2026 4:34 PM 275 vsynth2-speedhq-422p
Wednesday, March 18, 2026 4:34 PM 275 vsynth2-speedhq-444p
Wednesday, March 18, 2026 4:34 PM 251 vsynth2-svq1
Wednesday, March 18, 2026 4:34 PM 253 vsynth2-v210
Wednesday, March 18, 2026 4:34 PM 262 vsynth2-v210-10
Wednesday, March 18, 2026 4:34 PM 253 vsynth2-v308
Wednesday, March 18, 2026 4:34 PM 253 vsynth2-v408
Wednesday, March 18, 2026 4:34 PM 253 vsynth2-v410
Wednesday, March 18, 2026 4:34 PM 263 vsynth2-vc2-420p
Wednesday, March 18, 2026 4:34 PM 270 vsynth2-vc2-420p10
Wednesday, March 18, 2026 4:34 PM 270 vsynth2-vc2-420p12
Wednesday, March 18, 2026 4:34 PM 264 vsynth2-vc2-422p
Wednesday, March 18, 2026 4:34 PM 270 vsynth2-vc2-422p10
Wednesday, March 18, 2026 4:34 PM 270 vsynth2-vc2-422p12
Wednesday, March 18, 2026 4:34 PM 264 vsynth2-vc2-444p
Wednesday, March 18, 2026 4:34 PM 270 vsynth2-vc2-444p10
Wednesday, March 18, 2026 4:34 PM 270 vsynth2-vc2-444p12
Wednesday, March 18, 2026 4:34 PM 264 vsynth2-vc2-t5_3
Wednesday, March 18, 2026 4:34 PM 267 vsynth2-vc2-thaar
Wednesday, March 18, 2026 4:34 PM 251 vsynth2-wmv1
Wednesday, March 18, 2026 4:34 PM 251 vsynth2-wmv2
Wednesday, March 18, 2026 4:34 PM 253 vsynth2-xface
Wednesday, March 18, 2026 4:34 PM 252 vsynth2-y41p
Wednesday, March 18, 2026 4:34 PM 249 vsynth2-yuv
Wednesday, March 18, 2026 4:34 PM 252 vsynth2-yuv4
Wednesday, March 18, 2026 4:34 PM 253 vsynth2-zlib
Wednesday, March 18, 2026 4:34 PM 247 vsynth3-amv
Wednesday, March 18, 2026 4:34 PM 250 vsynth3-asv1
Wednesday, March 18, 2026 4:34 PM 250 vsynth3-asv2
Wednesday, March 18, 2026 4:34 PM 250 vsynth3-bpp1
Wednesday, March 18, 2026 4:34 PM 254 vsynth3-bpp15
Wednesday, March 18, 2026 4:34 PM 250 vsynth3-cljr
Wednesday, March 18, 2026 4:34 PM 291 vsynth3-dnxhd-1080i-10bit
Wednesday, March 18, 2026 4:34 PM 288 vsynth3-dnxhd-1080i-colr
Wednesday, March 18, 2026 4:34 PM 286 vsynth3-dnxhd-2k-hr-hq
Wednesday, March 18, 2026 4:34 PM 286 vsynth3-dnxhd-4k-hr-lb
Wednesday, March 18, 2026 4:34 PM 291 vsynth3-dnxhd-720p-hr-lb
Wednesday, March 18, 2026 4:34 PM 284 vsynth3-dnxhd-edge1-hr
Wednesday, March 18, 2026 4:34 PM 284 vsynth3-dnxhd-edge2-hr
Wednesday, March 18, 2026 4:34 PM 284 vsynth3-dnxhd-edge3-hr
Wednesday, March 18, 2026 4:34 PM 285 vsynth3-dnxhd-hr-hq-mov
Wednesday, March 18, 2026 4:34 PM 285 vsynth3-dnxhd-hr-lb-mov
Wednesday, March 18, 2026 4:34 PM 285 vsynth3-dnxhd-hr-sq-mov
Wednesday, March 18, 2026 4:34 PM 290 vsynth3-dnxhd-uhd-hr-sq
Wednesday, March 18, 2026 4:34 PM 257 vsynth3-dv-fhd
Wednesday, March 18, 2026 4:34 PM 254 vsynth3-dv-hd
Wednesday, March 18, 2026 4:34 PM 250 vsynth3-ffv1
Wednesday, March 18, 2026 4:34 PM 268 vsynth3-ffv1-2pass
Wednesday, March 18, 2026 4:34 PM 274 vsynth3-ffv1-2pass10
Wednesday, March 18, 2026 4:34 PM 259 vsynth3-ffv1-v0
Wednesday, March 18, 2026 4:34 PM 259 vsynth3-ffv1-v2
Wednesday, March 18, 2026 4:34 PM 275 vsynth3-ffv1-v3-bgr0
Wednesday, March 18, 2026 4:34 PM 278 vsynth3-ffv1-v3-rgb48
Wednesday, March 18, 2026 4:34 PM 283 vsynth3-ffv1-v3-yuv420p
Wednesday, March 18, 2026 4:34 PM 289 vsynth3-ffv1-v3-yuv422p10
Wednesday, March 18, 2026 4:34 PM 289 vsynth3-ffv1-v3-yuv444p16
Wednesday, March 18, 2026 4:34 PM 259 vsynth3-ffvhuff
Wednesday, March 18, 2026 4:34 PM 278 vsynth3-ffvhuff420p12
Wednesday, March 18, 2026 4:34 PM 290 vsynth3-ffvhuff422p10left
Wednesday, March 18, 2026 4:34 PM 269 vsynth3-ffvhuff444
Wednesday, March 18, 2026 4:34 PM 278 vsynth3-ffvhuff444p16
Wednesday, March 18, 2026 4:34 PM 260 vsynth3-flashsv
Wednesday, March 18, 2026 4:34 PM 263 vsynth3-flashsv2
Wednesday, March 18, 2026 4:34 PM 247 vsynth3-flv
Wednesday, March 18, 2026 4:34 PM 260 vsynth3-huffyuv
Wednesday, March 18, 2026 4:34 PM 275 vsynth3-huffyuvbgr24
Wednesday, March 18, 2026 4:34 PM 272 vsynth3-huffyuvbgra
Wednesday, March 18, 2026 4:34 PM 262 vsynth3-jpeg2000
Wednesday, March 18, 2026 4:34 PM 271 vsynth3-jpeg2000-97
Wednesday, March 18, 2026 4:34 PM 284 vsynth3-jpeg2000-gbrp12
Wednesday, March 18, 2026 4:34 PM 296 vsynth3-jpeg2000-yuva444p16
Wednesday, March 18, 2026 4:34 PM 257 vsynth3-jpegls
Wednesday, March 18, 2026 4:34 PM 254 vsynth3-ljpeg
Wednesday, March 18, 2026 4:34 PM 263 vsynth3-magicyuv
Wednesday, March 18, 2026 4:34 PM 253 vsynth3-mjpeg
Wednesday, March 18, 2026 4:34 PM 265 vsynth3-mjpeg-422
Wednesday, March 18, 2026 4:34 PM 265 vsynth3-mjpeg-444
Wednesday, March 18, 2026 4:34 PM 277 vsynth3-mjpeg-huffman
Wednesday, March 18, 2026 4:34 PM 271 vsynth3-mjpeg-trell
Wednesday, March 18, 2026 4:34 PM 295 vsynth3-mjpeg-trell-huffman
Wednesday, March 18, 2026 4:34 PM 266 vsynth3-mov-bgr24
Wednesday, March 18, 2026 4:34 PM 266 vsynth3-mov-bpp15
Wednesday, March 18, 2026 4:34 PM 266 vsynth3-mov-bpp16
Wednesday, March 18, 2026 4:34 PM 267 vsynth3-mpeg1
Wednesday, March 18, 2026 4:34 PM 270 vsynth3-mpeg1b
Wednesday, March 18, 2026 4:34 PM 267 vsynth3-mpeg2
Wednesday, March 18, 2026 4:34 PM 279 vsynth3-mpeg2-422
Wednesday, March 18, 2026 4:34 PM 294 vsynth3-mpeg2-idct-int
Wednesday, March 18, 2026 4:34 PM 285 vsynth3-mpeg2-ilace
Wednesday, March 18, 2026 4:34 PM 297 vsynth3-mpeg2-ivlc-qprd
Wednesday, March 18, 2026 4:34 PM 288 vsynth3-mpeg2-thread
Wednesday, March 18, 2026 4:34 PM 303 vsynth3-mpeg2-thread-ivlc
Wednesday, March 18, 2026 4:34 PM 253 vsynth3-mpeg4
Wednesday, March 18, 2026 4:34 PM 268 vsynth3-mpeg4-adap
Wednesday, March 18, 2026 4:34 PM 265 vsynth3-mpeg4-adv
Wednesday, March 18, 2026 4:34 PM 271 vsynth3-mpeg4-error
Wednesday, March 18, 2026 4:34 PM 262 vsynth3-mpeg4-nr
Wednesday, March 18, 2026 4:34 PM 268 vsynth3-mpeg4-nsse
Wednesday, March 18, 2026 4:34 PM 268 vsynth3-mpeg4-qpel
Wednesday, March 18, 2026 4:34 PM 268 vsynth3-mpeg4-qprd
Wednesday, March 18, 2026 4:34 PM 262 vsynth3-mpeg4-rc
Wednesday, March 18, 2026 4:34 PM 274 vsynth3-mpeg4-thread
Wednesday, March 18, 2026 4:34 PM 251 vsynth3-mpng
Wednesday, March 18, 2026 4:34 PM 259 vsynth3-msmpeg4
Wednesday, March 18, 2026 4:34 PM 265 vsynth3-msmpeg4v2
Wednesday, March 18, 2026 4:34 PM 253 vsynth3-msrle
Wednesday, March 18, 2026 4:34 PM 257 vsynth3-prores
Wednesday, March 18, 2026 4:34 PM 269 vsynth3-prores_444
Wednesday, March 18, 2026 4:34 PM 281 vsynth3-prores_444_int
Wednesday, March 18, 2026 4:34 PM 269 vsynth3-prores_int
Wednesday, March 18, 2026 4:34 PM 265 vsynth3-prores_ks
Wednesday, March 18, 2026 4:34 PM 254 vsynth3-qtrle
Wednesday, March 18, 2026 4:34 PM 251 vsynth3-r210
Wednesday, March 18, 2026 4:34 PM 248 vsynth3-rgb
Wednesday, March 18, 2026 4:34 PM 251 vsynth3-rpza
Wednesday, March 18, 2026 4:34 PM 247 vsynth3-smc
Wednesday, March 18, 2026 4:34 PM 250 vsynth3-svq1
Wednesday, March 18, 2026 4:34 PM 251 vsynth3-v210
Wednesday, March 18, 2026 4:34 PM 260 vsynth3-v210-10
Wednesday, March 18, 2026 4:34 PM 251 vsynth3-v308
Wednesday, March 18, 2026 4:34 PM 251 vsynth3-v408
Wednesday, March 18, 2026 4:34 PM 251 vsynth3-v410
Wednesday, March 18, 2026 4:34 PM 250 vsynth3-wmv1
Wednesday, March 18, 2026 4:34 PM 250 vsynth3-wmv2
Wednesday, March 18, 2026 4:34 PM 253 vsynth3-xface
Wednesday, March 18, 2026 4:34 PM 247 vsynth3-yuv
Wednesday, March 18, 2026 4:34 PM 250 vsynth3-yuv4
Wednesday, March 18, 2026 4:34 PM 251 vsynth3-zlib
Wednesday, March 18, 2026 4:34 PM 260 vsynth_lena-amv
Wednesday, March 18, 2026 4:34 PM 263 vsynth_lena-asv1
Wednesday, March 18, 2026 4:34 PM 263 vsynth_lena-asv2
Wednesday, March 18, 2026 4:34 PM 265 vsynth_lena-avui
Wednesday, March 18, 2026 4:34 PM 263 vsynth_lena-bpp1
Wednesday, March 18, 2026 4:34 PM 268 vsynth_lena-bpp15
Wednesday, March 18, 2026 4:34 PM 272 vsynth_lena-cinepak
Wednesday, March 18, 2026 4:34 PM 264 vsynth_lena-cljr
Wednesday, March 18, 2026 4:34 PM 285 vsynth_lena-dnxhd-1080i
Wednesday, March 18, 2026 4:34 PM 303 vsynth_lena-dnxhd-1080i-10bit
Wednesday, March 18, 2026 4:34 PM 300 vsynth_lena-dnxhd-1080i-colr
Wednesday, March 18, 2026 4:34 PM 298 vsynth_lena-dnxhd-2k-hr-hq
Wednesday, March 18, 2026 4:34 PM 298 vsynth_lena-dnxhd-4k-hr-lb
Wednesday, March 18, 2026 4:34 PM 286 vsynth_lena-dnxhd-720p
Wednesday, March 18, 2026 4:34 PM 304 vsynth_lena-dnxhd-720p-10bit
Wednesday, March 18, 2026 4:34 PM 303 vsynth_lena-dnxhd-720p-hr-lb
Wednesday, March 18, 2026 4:34 PM 295 vsynth_lena-dnxhd-720p-rd
Wednesday, March 18, 2026 4:34 PM 296 vsynth_lena-dnxhd-edge1-hr
Wednesday, March 18, 2026 4:34 PM 296 vsynth_lena-dnxhd-edge2-hr
Wednesday, March 18, 2026 4:34 PM 296 vsynth_lena-dnxhd-edge3-hr
Wednesday, March 18, 2026 4:34 PM 297 vsynth_lena-dnxhd-hr-hq-mov
Wednesday, March 18, 2026 4:34 PM 297 vsynth_lena-dnxhd-hr-lb-mov
Wednesday, March 18, 2026 4:34 PM 297 vsynth_lena-dnxhd-hr-sq-mov
Wednesday, March 18, 2026 4:34 PM 302 vsynth_lena-dnxhd-uhd-hr-sq
Wednesday, March 18, 2026 4:34 PM 256 vsynth_lena-dv
Wednesday, March 18, 2026 4:34 PM 268 vsynth_lena-dv-411
Wednesday, March 18, 2026 4:34 PM 266 vsynth_lena-dv-50
Wednesday, March 18, 2026 4:34 PM 269 vsynth_lena-dv-fhd
Wednesday, March 18, 2026 4:34 PM 266 vsynth_lena-dv-hd
Wednesday, March 18, 2026 4:34 PM 264 vsynth_lena-ffv1
Wednesday, March 18, 2026 4:34 PM 282 vsynth_lena-ffv1-2pass
Wednesday, March 18, 2026 4:34 PM 288 vsynth_lena-ffv1-2pass10
Wednesday, March 18, 2026 4:34 PM 273 vsynth_lena-ffv1-v0
Wednesday, March 18, 2026 4:34 PM 273 vsynth_lena-ffv1-v2
Wednesday, March 18, 2026 4:34 PM 288 vsynth_lena-ffv1-v3-bgr0
Wednesday, March 18, 2026 4:34 PM 292 vsynth_lena-ffv1-v3-rgb48
Wednesday, March 18, 2026 4:34 PM 297 vsynth_lena-ffv1-v3-yuv420p
Wednesday, March 18, 2026 4:34 PM 303 vsynth_lena-ffv1-v3-yuv422p10
Wednesday, March 18, 2026 4:34 PM 303 vsynth_lena-ffv1-v3-yuv444p16
Wednesday, March 18, 2026 4:34 PM 273 vsynth_lena-ffvhuff
Wednesday, March 18, 2026 4:34 PM 291 vsynth_lena-ffvhuff420p12
Wednesday, March 18, 2026 4:34 PM 304 vsynth_lena-ffvhuff422p10left
Wednesday, March 18, 2026 4:34 PM 282 vsynth_lena-ffvhuff444
Wednesday, March 18, 2026 4:34 PM 292 vsynth_lena-ffvhuff444p16
Wednesday, March 18, 2026 4:34 PM 274 vsynth_lena-flashsv
Wednesday, March 18, 2026 4:34 PM 276 vsynth_lena-flashsv2
Wednesday, March 18, 2026 4:34 PM 260 vsynth_lena-flv
Wednesday, March 18, 2026 4:34 PM 263 vsynth_lena-h261
Wednesday, March 18, 2026 4:34 PM 287 vsynth_lena-h261-trellis
Wednesday, March 18, 2026 4:34 PM 263 vsynth_lena-h263
Wednesday, March 18, 2026 4:34 PM 278 vsynth_lena-h263-obmc
Wednesday, March 18, 2026 4:34 PM 266 vsynth_lena-h263p
Wednesday, March 18, 2026 4:34 PM 273 vsynth_lena-huffyuv
Wednesday, March 18, 2026 4:34 PM 288 vsynth_lena-huffyuvbgr24
Wednesday, March 18, 2026 4:34 PM 286 vsynth_lena-huffyuvbgra
Wednesday, March 18, 2026 4:34 PM 276 vsynth_lena-jpeg2000
Wednesday, March 18, 2026 4:34 PM 285 vsynth_lena-jpeg2000-97
Wednesday, March 18, 2026 4:34 PM 297 vsynth_lena-jpeg2000-gbrp12
Wednesday, March 18, 2026 4:34 PM 310 vsynth_lena-jpeg2000-yuva444p16
Wednesday, March 18, 2026 4:34 PM 270 vsynth_lena-jpegls
Wednesday, March 18, 2026 4:34 PM 267 vsynth_lena-ljpeg
Wednesday, March 18, 2026 4:34 PM 276 vsynth_lena-magicyuv
Wednesday, March 18, 2026 4:34 PM 266 vsynth_lena-mjpeg
Wednesday, March 18, 2026 4:34 PM 278 vsynth_lena-mjpeg-422
Wednesday, March 18, 2026 4:34 PM 278 vsynth_lena-mjpeg-444
Wednesday, March 18, 2026 4:34 PM 290 vsynth_lena-mjpeg-huffman
Wednesday, March 18, 2026 4:34 PM 284 vsynth_lena-mjpeg-trell
Wednesday, March 18, 2026 4:34 PM 308 vsynth_lena-mjpeg-trell-huffman
Wednesday, March 18, 2026 4:34 PM 280 vsynth_lena-mov-bgr24
Wednesday, March 18, 2026 4:34 PM 280 vsynth_lena-mov-bpp15
Wednesday, March 18, 2026 4:34 PM 280 vsynth_lena-mov-bpp16
Wednesday, March 18, 2026 4:34 PM 280 vsynth_lena-mpeg1
Wednesday, March 18, 2026 4:34 PM 283 vsynth_lena-mpeg1b
Wednesday, March 18, 2026 4:34 PM 280 vsynth_lena-mpeg2
Wednesday, March 18, 2026 4:34 PM 292 vsynth_lena-mpeg2-422
Wednesday, March 18, 2026 4:34 PM 307 vsynth_lena-mpeg2-idct-int
Wednesday, March 18, 2026 4:34 PM 298 vsynth_lena-mpeg2-ilace
Wednesday, March 18, 2026 4:34 PM 310 vsynth_lena-mpeg2-ivlc-qprd
Wednesday, March 18, 2026 4:34 PM 301 vsynth_lena-mpeg2-thread
Wednesday, March 18, 2026 4:34 PM 316 vsynth_lena-mpeg2-thread-ivlc
Wednesday, March 18, 2026 4:34 PM 266 vsynth_lena-mpeg4
Wednesday, March 18, 2026 4:34 PM 281 vsynth_lena-mpeg4-adap
Wednesday, March 18, 2026 4:34 PM 278 vsynth_lena-mpeg4-adv
Wednesday, March 18, 2026 4:34 PM 284 vsynth_lena-mpeg4-error
Wednesday, March 18, 2026 4:34 PM 275 vsynth_lena-mpeg4-nr
Wednesday, March 18, 2026 4:34 PM 281 vsynth_lena-mpeg4-nsse
Wednesday, March 18, 2026 4:34 PM 281 vsynth_lena-mpeg4-qpel
Wednesday, March 18, 2026 4:34 PM 281 vsynth_lena-mpeg4-qprd
Wednesday, March 18, 2026 4:34 PM 275 vsynth_lena-mpeg4-rc
Wednesday, March 18, 2026 4:34 PM 287 vsynth_lena-mpeg4-thread
Wednesday, March 18, 2026 4:34 PM 264 vsynth_lena-mpng
Wednesday, March 18, 2026 4:34 PM 272 vsynth_lena-msmpeg4
Wednesday, March 18, 2026 4:34 PM 278 vsynth_lena-msmpeg4v2
Wednesday, March 18, 2026 4:34 PM 267 vsynth_lena-msrle
Wednesday, March 18, 2026 4:34 PM 275 vsynth_lena-msvideo1
Wednesday, March 18, 2026 4:34 PM 270 vsynth_lena-prores
Wednesday, March 18, 2026 4:34 PM 282 vsynth_lena-prores_444
Wednesday, March 18, 2026 4:34 PM 294 vsynth_lena-prores_444_int
Wednesday, March 18, 2026 4:34 PM 282 vsynth_lena-prores_int
Wednesday, March 18, 2026 4:34 PM 279 vsynth_lena-prores_ks
Wednesday, March 18, 2026 4:34 PM 268 vsynth_lena-qtrle
Wednesday, March 18, 2026 4:34 PM 279 vsynth_lena-qtrlegray
Wednesday, March 18, 2026 4:34 PM 265 vsynth_lena-r210
Wednesday, March 18, 2026 4:34 PM 262 vsynth_lena-rgb
Wednesday, March 18, 2026 4:34 PM 274 vsynth_lena-roqvideo
Wednesday, March 18, 2026 4:34 PM 264 vsynth_lena-rpza
Wednesday, March 18, 2026 4:34 PM 261 vsynth_lena-rv10
Wednesday, March 18, 2026 4:34 PM 261 vsynth_lena-rv20
Wednesday, March 18, 2026 4:34 PM 261 vsynth_lena-smc
Wednesday, March 18, 2026 4:34 PM 262 vsynth_lena-snow
Wednesday, March 18, 2026 4:34 PM 277 vsynth_lena-snow-hpel
Wednesday, March 18, 2026 4:34 PM 273 vsynth_lena-snow-ll
Wednesday, March 18, 2026 4:34 PM 287 vsynth_lena-speedhq-420p
Wednesday, March 18, 2026 4:34 PM 287 vsynth_lena-speedhq-422p
Wednesday, March 18, 2026 4:34 PM 287 vsynth_lena-speedhq-444p
Wednesday, March 18, 2026 4:34 PM 263 vsynth_lena-svq1
Wednesday, March 18, 2026 4:34 PM 265 vsynth_lena-v210
Wednesday, March 18, 2026 4:34 PM 274 vsynth_lena-v210-10
Wednesday, March 18, 2026 4:34 PM 265 vsynth_lena-v308
Wednesday, March 18, 2026 4:34 PM 265 vsynth_lena-v408
Wednesday, March 18, 2026 4:34 PM 265 vsynth_lena-v410
Wednesday, March 18, 2026 4:34 PM 275 vsynth_lena-vc2-420p
Wednesday, March 18, 2026 4:34 PM 282 vsynth_lena-vc2-420p10
Wednesday, March 18, 2026 4:34 PM 282 vsynth_lena-vc2-420p12
Wednesday, March 18, 2026 4:34 PM 276 vsynth_lena-vc2-422p
Wednesday, March 18, 2026 4:34 PM 282 vsynth_lena-vc2-422p10
Wednesday, March 18, 2026 4:34 PM 282 vsynth_lena-vc2-422p12
Wednesday, March 18, 2026 4:34 PM 276 vsynth_lena-vc2-444p
Wednesday, March 18, 2026 4:34 PM 282 vsynth_lena-vc2-444p10
Wednesday, March 18, 2026 4:34 PM 282 vsynth_lena-vc2-444p12
Wednesday, March 18, 2026 4:34 PM 276 vsynth_lena-vc2-t5_3
Wednesday, March 18, 2026 4:34 PM 279 vsynth_lena-vc2-thaar
Wednesday, March 18, 2026 4:34 PM 263 vsynth_lena-wmv1
Wednesday, March 18, 2026 4:34 PM 263 vsynth_lena-wmv2
Wednesday, March 18, 2026 4:34 PM 265 vsynth_lena-xface
Wednesday, March 18, 2026 4:34 PM 264 vsynth_lena-y41p
Wednesday, March 18, 2026 4:34 PM 261 vsynth_lena-yuv
Wednesday, March 18, 2026 4:34 PM 264 vsynth_lena-yuv4
Wednesday, March 18, 2026 4:34 PM 265 vsynth_lena-zlib